Regional Weather Roundup
Issued by NWS Grand Forks, ND

Home | Current Version | Previous Version | Graphics & Text | Print | Product List | Glossary On
Versions: 1 2 3 4 5 6 7 8 9 10 11 12 13 14 15 16 17 18 19 20 21 22 23 24 25 26 27 28 29 30 31 32 33 34 35 36 37 38 39 40 41 42 43 44 45 46 47 48 49 50
000
ASUS43 KFGF 280931
RWRFGF
PRAIRIE TO PINES  WEATHER ROUNDUP
NATIONAL WEATHER SERVICE EASTERN NORTH DAKOTA/GRAND FORKS ND
400 AM CDT TUE JUL 28 2015

 **SATELLITE DATA USED TO AUGMENT SKY COVER AT AUTOMATED STATIONS**
 *****  WEATHER ACROSS EASTERN NORTH DAKOTA  *****

CITY           SKY/WX    TMP DP  RH WIND       PRES   REMARKS
GRAND FORKS    CLOUDY    73  71  93 SE13      29.59F
GRAND FRKS AFB CLOUDY    73  72  94 S12       29.60F
GRAND FRKS NWS   N/A     73 N/A N/A SE10        N/A
DEVILS LAKE    CLOUDY    75  66  73 S10       29.56S
FARGO          HVY RAIN  73  71  93 S22G38    29.67R VSB 1
WAHPETON ARPT  CLOUDY    70  68  94 S10       29.75R
$$

 ***** WEATHER ACROSS CENTRAL AND WESTERN NORTH DAKOTA  *****

CITY           SKY/WX    TMP DP  RH WIND       PRES   REMARKS
BISMARCK       CLOUDY    68  60  75 SW8       29.63S
MINOT          CLOUDY    68  58  70 S13       29.51F
JAMESTOWN      CLOUDY    70  65  84 SE10      29.56F
MINOT AFB      MOCLDY    65  63  91 SE14      29.51S
GARRISON         N/A     63  60  90 S6        29.58S
WILLISTON      CLOUDY    62  57  83 SW29G40   29.58F
DICKINSON      MOCLDY    58  54  86 W25G33    29.69R
HETTINGER      MOCLDY    57  53  86 W29G39    29.77S
$$

 *****  OTHER AIRPORT OBSERVATIONS IN OUR AREA  *****

CITY           SKY/WX    TMP DP  RH WIND       PRES   REMARKS
WALHALLA       FAIR      73  73 100 MISG      29.56F
GRAFTON AIRPOR FAIR      73  73 100 SE14      29.59F
VALLEY CITY AR LGT RAIN  68  68 100 NE9       29.58F
CANDO          FAIR      73  73 100 S13       29.55F
CAVALIER APRT  FAIR      73  72  94 SE12G21   29.57F
GWINNER          N/A     66  66 100 NE6       29.63F
ROLLA          PTSUNNY   73  73 100 S10G18    29.56R
 ***** THE ABOVE OBSERVATIONS ARE NON NWS ARE NOT QUALITY
       CONTROLLED AND MAY MIS-REPORT RAIN FOR SNOW...
$$

  *****  WEATHER ACROSS NORTHERN MINNESOTA  *****

CITY           SKY/WX    TMP DP  RH WIND       PRES   REMARKS
FLAG ISLAND    CLEAR     75  70  83 SE18      29.71F
WARROAD        MOCLDY    72  68  88 SE10      29.72S
ROSEAU         CLOUDY    73  68  83 SE8       29.69F
HALLOCK        MOCLDY    73  72  94 SE15      29.60F
THF RVR FALLS  MOCLDY    73  70  88 SE13      29.65F
BAUDETTE       CLEAR     71  67  87 SE13      29.74F
WASKISH        MOCLDY    72  70  94 E3        29.75S
CROOKSTON      CLOUDY    75  72  88 SE14      29.62F
STEPHEN NDAWN    N/A     73  72  94 SE12        N/A
GREENBUSH NDAW   N/A     73  72  94 SE12        N/A
$$
  *****  WEATHER ACROSS CENTRAL AND WEST MINNESOTA  *****

CITY           SKY/WX    TMP DP  RH WIND       PRES   REMARKS
FOSSTON        MOCLDY    72  68  88 SE9       29.68F
BEMIDJI        CLOUDY    73  69  87 SE13      29.73F
PARK RAPIDS    MOCLDY    74  69  85 SE10      29.75F
ELBOW LAKE     RAIN      70  69  97 SW9       29.77R
WADENA         CLOUDY    72  68  88 SE9       29.74R
DETROIT LAKES  CLOUDY    73  68  83 S17       29.73S
MOORHEAD       TSTM      73  70  88 S22G28    29.69R
FERGUS FALLS   TSTM      70  70 100 S15G23    29.74R
MORRIS MN      TSTM      72  70  94 CALM      29.74R
STAPLES        MOCLDY    72  68  88 SE8G16    29.75F
$$
  *****  WEATHER ELSEWHERE ACROSS MINNESOTA  *****

CITY           SKY/WX    TMP DP  RH WIND       PRES   REMARKS
DULUTH         CLEAR     70  65  84 SE9       29.87F
INTRNTL FALLS  PTCLDY    69  66  90 SE8       29.80F
ELY            CLEAR     66  61  82 SE6       29.88F
CLOQUET        CLEAR     68  64  88 E5        29.86F
WHEATON        HVY RAIN  66  64  94 SE6       29.77S
BRAINERD       MOCLDY    73  70  90 S10       29.79F
HIBBING        CLEAR     66  63  90 SE7       29.84F
ALEXANDRIA     TSTM      70  69  97 S22       29.83R FOG
SAINT CLOUD    PTCLDY    73  71  93 SE12      29.78F
MINNEAPOLIS    CLEAR     74  70  87 SE14      29.83F
$$

  *****  WEATHER ACROSS SOUTH DAKOTA  *****

CITY           SKY/WX    TMP DP  RH WIND       PRES   REMARKS
SIOUX FALLS    LGT RAIN  72  68  87 W7G22     29.77R
BROOKINGS      CLOUDY    70  64  83 SE5       29.79F THUNDER
WATERTOWN      RAIN      69  67  93 NW9       29.74F
HURON          CLOUDY    68  66  93 S5        29.68R
SISSETON         N/A     69  68  96 SE7       29.71R
ABERDEEN       CLOUDY    69  66  90 E15       29.58R
MITCHELL       CLOUDY    69  68  96 E5        29.71F
PIERRE         CLOUDY    67  65  93 W5        29.71R
MOBRIDGE       CLOUDY    70  64  81 W15       29.68R
RAPID CITY     CLEAR     56  49  77 NW14      29.87S
$$

  *****  SOME WEATHER IN NEARBY STATES *****

CITY           SKY/WX    TMP DP  RH WIND       PRES   REMARKS
GLASGOW MT     LGT RAIN  56  53  90 W25G32    29.64F
GREAT FALLS MT CLOUDY    51  47  86 SW10      30.02S
CHEYENNE WY    CLEAR     59  29  31 NW15G26   30.10R
SCOTTSBLUFF NE CLEAR     59  49  69 NW9       29.99R
OMAHA NE       PTCLDY    76  72  87 SE16      29.79F
DES MOINES IA  PTCLDY    74  70  87 SE6       29.87S
DAVENPORT IA   CLEAR     72  69  90 E7        29.95F
CHICAGO IL     PTCLDY    71  66  84 NE5       29.99S
EAU CLAIRE WI  CLEAR     71  66  84 SE6       29.91F
LA CROSSE WI   CLEAR     73  66  78 SE7       29.91F
$$

  *****  SOME NATIONAL WEATHER *****

CITY           SKY/WX    TMP DP  RH WIND       PRES   REMARKS
LA GUARDIA NY  CLEAR     76  68  76 CALM      29.99S
RALEIGH NC     MOCLDY    74  70  87 S3        30.00F
ATLANTA GA     PTCLDY    78  71  79 CALM      29.98S
NEW ORLEANS LA PTCLDY    80  74  81 CALM      29.96F
OKLAHOMA CITY  CLEAR     77  69  76 S9        29.89F
ALBUQUERQUE NM CLOUDY    78  50  37 S9        30.08S
SALT LAKE CITY CLEAR     59  38  45 CALM      30.17R
LOS ANGELES CA MOCLDY    67  63  87 CALM      29.89F
BOISE ID       CLEAR     56  37  49 CALM      30.19S
SEATTLE WA     PTCLDY    61  52  72 NE10      30.26R
$$

*** WEATHER ACROSS MANITOBA...SASKATCHEWAN AND ONTARIO ***
                ***ONTARIO***

CITY           SKY/WX    TMP DP  RH WIND       PRES   REMARKS
GERALDTON      CLEAR     63  55  77 CALM      29.96S
THUNDER BAY    PTCLDY    61  61 100 NE6       29.93F
SIOUX LOOKOUT  PTCLDY    66  61  82 S5        29.85F
TORONTO        CLEAR     68  59  73 NW3       30.02S
BIG TROUT LK   PTCLDY    59  55  88 CALM      29.87R
PICKLE LAKE    NOT AVBL
DRYDEN         CLEAR     70  63  78 SE9       29.84F
KENORA         PTCLDY    72  68  88 SE7       29.77F
$$
                *** MANITOBA***

CITY           SKY/WX    TMP DP  RH WIND       PRES   REMARKS
BRANDON        CLOUDY    73  72  94 SE8       29.52F
DAUPHIN        LGT RAIN  64  63  94 N7        29.58F
ISLAND LAKE    CLOUDY    68  59  73 VRB2      29.80
PILOT MOUND      N/A     73  70  88 SE16G24     N/A
THE PAS        PTCLDY    64  59  82 E3        29.76S
THOMPSON       MOCLDY    59  54  82 CALM      29.80F
WINNIPEG       PTCLDY    75  70  83 SE14G22   29.60F
LYNN LAKE      CLEAR     57  52  82 SW6       29.79S
CHURCHILL      PTCLDY    54  52  94 NE7       29.76S
GILLAM         CLEAR     57  54  88 SW5       29.82S
$$
                ***SASKATCHEWAN***

CITY           SKY/WX    TMP DP  RH WIND       PRES   REMARKS
ESTEVAN        CLOUDY    63  61  94 SW18G26   29.50R
KINDERSLEY     LGT RAIN  55  55 100 N14       29.79F
LLOYDMINSTER   MOCLDY    55  46  71 NW12      29.85S
PRINCE ALBERT  RAIN      59  55  88 NE9       29.74F
REGINA         CLOUDY    63  61  94 E17G32    29.41F
YORKTON        CLOUDY    61  59  94 NE17G23   29.48F
N. BATTLEFORD  LGT RAIN  57  57 100 NW9       29.79F
LA RONGE       PTCLDY    57  54  88 VRB2      29.79F
SASKATOON      LGT RAIN  59  57  94 N18       29.68F
SWIFT CURRENT  RAIN      54 N/A N/A N21G26    29.63F
$$
NOTE: THESE ARE AUTOMATED STATIONS WITH LIMITED QUALITY CONTROL
      "FAIR" INDICATES FEW OR NO CLOUDS BELOW 12,000 FEET WITH NO
      SIGNIFICANT WEATHER AND/OR OBSTRUCTIONS TO VISIBILITY.
      SKY/WX - SKY CONDITION AND SIGNIFICANT WEATHER.
      TMP - AIR TEMPERATURE.    DP   - DEWPOINT TEMPERATURE.
      RH  - RELATIVE HUMIDITY.  PRES - PRESSURE.
      HX  - HEAT INDEX.         WCI  - WIND CHILL INDEX.
$



USA.gov is the U.S. government's official web portal to all federal, state and local government web resources and services.